OSCAR 7 (AO-7) 1 07530U 74089B 26207.65539451 -.00000025 00000+0 13291-3 0 9994 2 07530 101.9910 221.3137 0012588 57.0910 60.8894 12.53698736365462 PHASE 3B (AO-10) 1 14129U 83058B 26205.27121363 .00000141 00000+0 00000+0 0 9995 2 14129 25.9448 213.4614 5998465 125.8541 305.6642 2.05869085296257 UOSAT 2 (UO-11) 1 14781U 84021B 26207.48548143 .00001537 00000+0 16152-3 0 9993 2 14781 97.8085 172.6298 0009007 60.3052 299.9062 14.90875642262987 LUSAT (LO-19) 1 20442U 90005G 26207.60113664 .00000133 00000+0 64296-4 0 9997 2 20442 98.8847 230.4912 0012690 90.8527 269.4111 14.34133549908040 EYESAT A (AO-27) 1 22825U 93061C 26207.15707977 .00000099 00000+0 54836-4 0 9995 2 22825 98.6860 274.5521 0008121 354.1253 5.9833 14.30951411712578 ITAMSAT (IO-26) 1 22826U 93061D 26207.12485829 .00000095 00000+0 52792-4 0 9997 2 22826 98.6808 274.4413 0008287 336.4167 23.6635 14.31379236712881 RADIO ROSTO (RS15) 1 23439U 94085A 26207.49393335 -.00000003 00000+0 11172-2 0 9990 2 23439 64.8134 239.6466 0157352 356.6356 3.3498 11.27583799300330 JAS-2 (FO-29) 1 24278U 96046B 26207.12567699 -.00000028 00000+0 85705-5 0 9990 2 24278 98.5211 50.6601 0349812 355.5933 4.2151 13.53275845478431 TECHSAT 1B (GO-32) 1 25397U 98043D 26207.47061429 .00000073 00000+0 51645-4 0 9994 2 25397 99.0094 201.2247 0002367 96.9090 263.2358 14.24435228456928 ISS (ZARYA) 1 25544U 98067A 26207.41084145 .00010751 00000+0 20166-3 0 9995 2 25544 51.6317 105.9876 0006941 339.4731 20.5977 15.49181604577830 PCSAT (NO-44) 1 26931U 01043C 26207.55193829 .00000136 00000+0 81588-4 0 9991 2 26931 67.0508 142.4563 0005816 267.5976 92.4460 14.31968912296080 SAUDISAT 1C (SO-50) 1 27607U 02058C 26207.60222235 .00001326 00000+0 17299-3 0 9998 2 27607 64.5527 7.0278 0074185 255.1735 104.1145 14.83120492270302 CUTE-1 (CO-55) 1 27844U 03031E 26205.97080695 .00000297 00000+0 14722-3 0 9997 2 27844 98.6748 214.0560 0010827 77.5978 282.6412 14.24356508197053 CUBESAT XI-IV (CO-57) 1 27848U 03031J 26207.45419514 .00000283 00000+0 14333-3 0 9995 2 27848 98.6781 215.2019 0010745 90.2969 269.9441 14.23639776196966 MOZHAETS 4 (RS22) 1 27939U 03042A 26207.66525701 .00000622 00000+0 10394-3 0 9997 2 27939 98.3482 33.1435 0012051 138.2239 280.9913 14.73530715221364 CUBESAT XI-V 1 28895U 05043F 26206.38337387 .00001433 00000+0 23244-3 0 9990 2 28895 98.3027 2.8183 0015328 85.5364 274.7594 14.72724317107379 CUTE-1.7+APD II (CO-65) 1 32785U 08021C 26207.62085334 .00005484 00000+0 34341-3 0 9992 2 32785 97.8302 189.8756 0006925 250.6034 109.4446 15.09791439991142 SEEDS II (CO-66) 1 32791U 08021J 26207.48531490 .00020095 00000+0 61220-3 0 9993 2 32791 97.7527 207.3005 0004185 140.7289 219.4257 15.34010294993311 YUBILEINY (RS30) 1 32953U 08025A 26207.61320606 -.00000073 00000+0 -59811-3 0 9996 2 32953 82.5065 330.9157 0018964 222.8714 137.0889 12.43180841824598 KKS-1 (KISEKI) 1 33499U 09002H 26207.52072717 .00001482 00000+0 18812-3 0 9994 2 33499 98.1168 130.5854 0008324 152.9371 207.2278 14.83213514942021 SWISSCUBE 1 35932U 09051B 26207.57615766 .00001130 00000+0 23227-3 0 9990 2 35932 98.3995 116.1450 0008146 89.0682 271.1453 14.62549603894911 BEESAT-1 1 35933U 09051C 26207.53778435 .00000925 00000+0 19513-3 0 9994 2 35933 98.3923 115.6586 0006518 100.7804 259.4131 14.61777490894935 ITUPSAT1 1 35935U 09051E 26205.71341033 .00000750 00000+0 16464-3 0 9992 2 35935 98.4010 112.9584 0008579 116.8690 243.3387 14.60490026894215 XIWANG-1 (HOPE-1) 1 36122U 09072B 26207.61141963 .00000261 00000+0 79938-3 0 9997 2 36122 100.4039 160.8174 0007886 139.5874 220.5826 13.16441102798198 O/OREOS (USA 219) 1 37224U 10062C 26207.57227467 .00002422 00000+0 23313-3 0 9998 2 37224 71.9709 351.1120 0014776 343.2493 16.8187 14.93890885122527 JUGNU 1 37839U 11058B 26207.34555164 .00000423 00000+0 81101-4 0 9998 2 37839 19.9611 70.5188 0018628 148.9297 8.6775 14.13786236764576 SRMSAT 1 37841U 11058D 26207.02669267 .00000372 00000+0 58230-4 0 9996 2 37841 19.9703 184.3803 0011522 271.2245 137.1248 14.11582893763313 STRAND-1 1 39090U 13009E 26207.46164791 .00000308 00000+0 11770-3 0 9998 2 39090 98.3940 26.7338 0009813 110.9597 249.2641 14.37184537702705 ZACUBE-1 (TSHEPISOSAT) 1 39417U 13066B 26207.33157887 .00004180 00000+0 32239-3 0 9993 2 39417 97.7984 169.8565 0043981 119.6671 240.8943 15.01388194686602 GOMX-1 1 39430U 13066Q 26207.61007471 .00001415 00000+0 21837-3 0 9992 2 39430 97.6469 45.5861 0127234 311.3440 47.6876 14.69566045675705 CUBEBUG-2 (LO-74) 1 39440U 13066AA 26207.58109536 .00003181 00000+0 29500-3 0 9991 2 39440 97.8910 156.7382 0055646 256.5609 102.9405 14.94027333682875 FUNCUBE-1 (AO-73) 1 39444U 13066AE 26207.62516650 .00008547 00000+0 52176-3 0 9995 2 39444 97.8293 179.9131 0037821 70.7989 289.7326 15.09962313685618 UWE-3 1 39446U 13066AG 26207.31407045 .00003137 00000+0 26986-3 0 9990 2 39446 97.8728 163.6641 0048119 186.8739 173.1828 14.97264258683433 UNISAT-6 1 40012U 14033C 26207.66475350 .00002360 00000+0 25627-3 0 9996 2 40012 97.7918 359.6963 0043473 299.0554 60.6312 14.88409309652036 DUCHIFAT-1 1 40021U 14033M 26207.62547561 .00177949 00000+0 12215-2 0 9990 2 40021 98.0414 272.6102 0004423 227.2371 132.8520 15.74158245661930 QB50P1 1 40025U 14033R 26207.48870918 .00008396 00000+0 40633-3 0 9998 2 40025 98.0970 221.4073 0010569 92.3980 267.8462 15.18818907658997 LILACSAT-2 1 40908U 15049K 26207.60000772 .00019527 00000+0 31719-3 0 9996 2 40908 97.4626 245.9663 0008678 108.3382 251.8816 15.52717203601861 FOX-1A (AO-85) 1 40967U 15058D 26207.25366003 .00004249 00000+0 37490-3 0 9991 2 40967 64.7745 157.5593 0133284 41.6353 319.4813 14.91156578119398 CAS-2T & KS-1Q 1 41847U 16066G 26207.16238672 .00000805 00000+0 12157-3 0 9996 2 41847 98.3807 282.4526 0341613 11.5185 349.3577 14.44785686510422 RADFXSAT (FOX-1B) 1 43017U 17073E 26207.62597012 .00007880 00000+0 34059-3 0 9998 2 43017 97.4660 74.0376 0148800 191.7242 168.0512 15.13201425471350 DIWATA-2B 1 43678U 18084H 26207.58025058 .00001810 00000+0 14837-3 0 9994 2 43678 98.1222 45.5171 0012029 48.8551 311.3708 15.00598105422120 ES'HAIL 2 1 43700U 18090A 26207.54009912 .00000000 00000+0 00000+0 0 9997 2 43700 0.0266 70.0123 0002479 86.4343 8.0056 1.00269525 28079 FOX-1CLIFF (AO-95) 1 43770U 18099N 26207.13093367 .00012306 00000+0 45977-3 0 9993 2 43770 97.4370 267.2484 0008287 197.7474 162.3477 15.27476644419167 ITASAT 1 43786U 18099AE 26207.60500646 .00007186 00000+0 34098-3 0 9997 2 43786 97.4012 258.3359 0011802 206.8066 153.2561 15.19504743418890 JY1SAT (JO-97) 1 43803U 18099AX 26207.61917303 .00018958 00000+0 56213-3 0 9992 2 43803 97.4110 270.6174 0007340 124.9805 235.2128 15.34854465419677 UWE-4 1 43880U 18111E 26207.34078271 .00036326 00000+0 68322-3 0 9997 2 43880 97.5835 137.6029 0008136 157.9583 202.2018 15.48445894416835 TIANYAN 01 1 44881U 19093C 26207.62375221 .00001340 00000+0 15702-3 0 9997 2 44881 97.7518 278.8910 0012541 322.9303 37.1045 14.86576233357273 RS-44 & BREEZE-KM R/B 1 44909U 19096E 26207.32984857 -.00000005 00000+0 -67896-4 0 9990 2 44909 82.5246 313.6980 0218280 53.0731 309.0147 12.79748870307350 SALSAT 1 46495U 20068K 26207.58081109 .00007851 00000+0 27023-3 0 9990 2 46495 97.8863 213.0615 0010435 154.3892 205.7866 15.30310578321388 XW-3 (CAS-9) 1 50466U 21131B 26207.62306590 .00000595 00000+0 19722-3 0 9999 2 50466 98.4986 299.8001 0003809 359.2411 0.8772 14.41390550240799 GREENCUBE (IO-117) 1 53109U 22080E 26207.24903668 -.00000003 00000+0 00000+0 0 9997 2 53109 70.1379 284.6631 0009106 281.0141 78.9494 6.42583412 94571 UMKA 1 (RS40S) 1 57172U 23091G 26207.63176479 .00006401 00000+0 28937-3 0 9999 2 57172 97.5032 266.1823 0011877 349.7528 10.3463 15.21229305170005 CUBESX-HSE 3 (RS42S) 1 57178U 23091N 26207.56754169 .00013473 00000+0 43616-3 0 9993 2 57178 97.5075 273.6726 0008734 317.3644 42.6919 15.32126069170459 MONITOR-3 (RS58S) 1 57180U 23091Q 26207.61588840 .00010603 00000+0 38365-3 0 9990 2 57180 97.5067 271.3657 0009941 326.8242 33.2373 15.28561740170310 MONITOR-4 (RS57S) 1 57182U 23091S 26207.59273242 .00010938 00000+0 39459-3 0 9992 2 57182 97.5061 271.3157 0009930 327.2949 32.7675 15.28650180170314 MONITOR-2 (RS39S) 1 57184U 23091U 26207.63772204 .00005380 00000+0 25828-3 0 9991 2 57184 97.5053 265.6683 0010233 343.8950 16.1958 15.19242168169941 SVYATOBOR 1 (RS60S) 1 57187U 23091X 26207.57565950 .00009200 00000+0 34726-3 0 9997 2 57187 97.5072 271.6216 0007713 320.6897 39.3781 15.27224228170327 VIZARD-METEO (RS38S) 1 57189U 23091Z 26207.61022496 .00018142 00000+0 49973-3 0 9992 2 57189 97.5077 277.9138 0005198 288.2675 71.8003 15.37189494170744 POLYTECH-UNIVERSE 3 (R*) 1 57191U 23091AB 26207.59363591 .00005026 00000+0 23969-3 0 9990 2 57191 97.5029 265.1288 0014932 358.8130 1.3066 15.19456025169938 UTMN 2 (RS27S) 1 57203U 23091AP 26207.62927992 .00013406 00000+0 42339-3 0 9992 2 57203 97.5071 275.4167 0006020 301.9365 58.1291 15.32938514170583 KUZGTU 1 (RS47S) 1 57217U 23091AV 26207.59454956 .00012885 00000+0 43623-3 0 9995 2 57217 97.5047 272.4936 0009072 322.4520 37.6086 15.30688303170404 SONATE-2 1 59112U 24043Q 26207.32611125 .00046537 00000+0 53949-3 0 9996 2 59112 97.5560 0.2212 0006145 68.4040 291.7872 15.61657503133997 MESAT1 1 60209U 24125G 26207.35464471 .00075008 00000+0 67860-3 0 9991 2 60209 97.2235 65.8484 0009940 78.4335 281.8042 15.67793159115694 OOV-CUBE (TUBSAT-30) 1 60240U 24128F 26207.37819621 .00002300 00000+0 18332-3 0 9997 2 60240 61.9952 88.9020 0039644 142.5631 217.8234 15.02914371112005 COLIBRI-S (RS67S) 1 61746U 24199M 26207.60956209 .00025300 00000+0 46280-3 0 9995 2 61746 97.2939 81.8554 0009798 126.7559 233.4594 15.49294200143514 HORS 3 (RS81S) 1 61753U 24199U 26207.63172571 .00042988 00000+0 57921-3 0 9993 2 61753 97.2919 84.3241 0008111 123.7541 236.4489 15.57681593143696 HORS 4 (RS82S) 1 61754U 24199V 26207.65221529 .00064184 00000+0 68995-3 0 9999 2 61754 97.2860 85.8313 0007646 119.4742 240.7281 15.63521436143802 SIT-2086 1 61764U 24199AF 26207.59355163 .00043025 00000+0 62137-3 0 9998 2 61764 97.2876 84.6246 0008847 112.6854 247.5337 15.55797271140554 HYPERVIEW 1G (RS66S) 1 61772U 24199AP 26207.64854037 .00318376 39747-4 10142-2 0 9994 2 61772 97.2759 89.7397 0008045 133.5723 226.6220 15.91061104140911 ALTAIR (RS65S) 1 61779U 24199AW 26207.62082798 .00008961 00000+0 24368-3 0 9993 2 61779 97.2982 76.7199 0013308 156.1342 204.0523 15.37681206143176 ASRTU-1 (AO-123) 1 61781U 24199AY 26207.58013519 .00008226 00000+0 23472-3 0 9995 2 61781 97.2952 75.8995 0014269 159.8044 200.3768 15.36196521139979 SAMSAT-IONOSPHERE (RS7*) 1 61784U 24199BB 26207.65287583 .00054942 00000+0 64710-3 0 9996 2 61784 97.2884 84.5567 0010135 126.7799 233.4390 15.61167518143713 RTU MIREA 1 (RS51S) 1 61785U 24199BC 26207.64184284 .00077279 00000+0 76159-3 0 9998 2 61785 97.2867 85.6082 0010006 123.2967 236.9253 15.65652632140639 TEVEL2-4 1 63213U 25052D 26207.61412794 .00021708 00000+0 62190-3 0 9998 2 63213 97.3853 104.0978 0002206 30.7869 329.3504 15.35932267 76163 TEVEL2-5 1 63214U 25052E 26207.50899409 .00020791 00000+0 59960-3 0 9991 2 63214 97.3852 103.9287 0002365 34.2661 325.8735 15.35732988 76142 TEVEL2-6 1 63215U 25052F 26207.19643220 .00020212 00000+0 58389-3 0 9997 2 63215 97.3856 103.5999 0002353 35.3419 324.7981 15.35685489 76091 TEVEL2-1 1 63217U 25052H 26207.63073107 .00019258 00000+0 56653-3 0 9999 2 63217 97.3830 103.6110 0003100 35.3087 324.8361 15.35121104 76141 TEVEL2-3 1 63218U 25052J 26207.23272997 .00019313 00000+0 56723-3 0 9994 2 63218 97.3836 103.2399 0002914 40.8705 319.2757 15.35171843 76088 TEVEL2-2 1 63219U 25052K 26207.63077475 .00019384 00000+0 57003-3 0 9993 2 63219 97.3830 103.6142 0003059 36.3879 323.7572 15.35132626 76144 OTP-2 1 63235U 25052AB 26207.61637749 .00008427 00000+0 34549-3 0 9991 2 63235 97.3822 99.4612 0007346 38.9741 321.2025 15.24483549 75872 TEVEL2-9 1 63237U 25052AD 26207.26879143 .00017764 00000+0 55803-3 0 9990 2 63237 97.3897 102.5393 0006469 25.3022 334.8536 15.33039591 76013 TEVEL2-7 1 63238U 25052AE 26207.64400259 .00017666 00000+0 56041-3 0 9997 2 63238 97.3891 102.8132 0006493 24.0710 336.0835 15.32727776 76068 TEVEL2-8 1 63239U 25052AF 26207.26091252 .00017660 00000+0 56069-3 0 9999 2 63239 97.3894 102.4062 0006561 25.3469 334.8093 15.32701286 76005 INNOSAT 16 (RS92S7) 1 64878U 25155C 26207.61702542 .00006184 00000+0 24404-3 0 9990 2 64878 97.4589 174.6366 0011936 54.2271 306.0075 15.25847513 86681 GEOSCAN 6 (RS92S6) 1 64879U 25155D 26207.60569665 .00011839 00000+0 39901-3 0 9998 2 64879 97.4577 176.3364 0009182 49.9124 310.2921 15.30853812 86798 GEOSCAN 1 (RS92S1) 1 64880U 25155E 26207.59187951 .00012101 00000+0 39949-3 0 9997 2 64880 97.4573 176.5065 0009114 50.3573 309.8472 15.31516074 86809 239ALFEROV (RS61S) 1 64881U 25155F 26207.56733690 .00016121 00000+0 49217-3 0 9997 2 64881 97.4571 177.1826 0008778 50.8975 309.3047 15.33955391 86844 GEOSCAN 2 (RS92S2) 1 64890U 25155Q 26207.57884190 .00011469 00000+0 37592-3 0 9993 2 64890 97.4572 176.6611 0008038 40.3144 319.8692 15.31770343 86811 GEOSCAN 5 (RS92S5) 1 64891U 25155R 26207.61363466 .00016180 00000+0 48938-3 0 9998 2 64891 97.4564 177.3815 0007886 56.4959 303.7036 15.34257030 86864 GEOSCAN 4 (RS92S4) 1 64892U 25155S 26207.59362762 .00016685 00000+0 50180-3 0 9996 2 64892 97.4569 177.4218 0007743 57.1298 303.0689 15.34431886 86864 GEOSCAN 3 (RS92S3) 1 64893U 25155T 26207.60544085 .00020609 00000+0 57639-3 0 9996 2 64893 97.4555 177.9842 0007806 58.1789 302.0214 15.36669270 86904 INNOSAT 3 (RS92S0) 1 64894U 25155U 26207.62039561 .00045006 00000+0 90009-3 0 9993 2 64894 97.4496 180.1473 0007163 66.2931 293.9070 15.46628270 87051 KNACKSAT-2 1 67683U 98067XZ 26206.68153171 .00057388 00000+0 61132-3 0 9994 2 67683 51.6274 100.3605 0007471 1.6961 358.4058 15.63384599 26299